TimeEDT,TemperatureF,Dew PointF,Humidity,Sea Level PressureIn,VisibilityMPH,Wind Direction,Wind SpeedMPH,Gust SpeedMPH,PrecipitationIn,Events,Conditions,WindDirDegrees,DateUTC
12:02 AM,42.8,41.0,93,30.16,10.0,Calm,Calm,-,N/A,,Partly Cloudy,0,2013-09-19 04:02:00
12:54 AM,42.1,39.9,92,30.19,10.0,Calm,Calm,-,N/A,,Partly Cloudy,0,2013-09-19 04:54:00
1:06 AM,42.8,39.2,87,30.18,10.0,Calm,Calm,-,N/A,,Mostly Cloudy,0,2013-09-19 05:06:00
1:27 AM,42.8,39.2,87,30.18,1.8,Calm,Calm,-,N/A,,Mostly Cloudy,0,2013-09-19 05:27:00
1:42 AM,41.0,39.2,93,30.18,0.8,Calm,Calm,-,N/A,,Mist,0,2013-09-19 05:42:00
1:52 AM,41.0,39.2,93,30.18,1.2,Calm,Calm,-,N/A,,Overcast,0,2013-09-19 05:52:00
1:54 AM,41.0,39.0,93,30.19,1.2,Calm,Calm,-,N/A,,Overcast,0,2013-09-19 05:54:00
2:00 AM,41.0,39.2,93,30.18,0.8,Calm,Calm,-,N/A,,Mist,0,2013-09-19 06:00:00
2:11 AM,41.0,39.2,93,30.18,1.0,Calm,Calm,-,N/A,,Mist,0,2013-09-19 06:11:00
2:27 AM,41.0,39.2,93,30.18,2.0,Calm,Calm,-,N/A,,Overcast,0,2013-09-19 06:27:00
2:34 AM,39.2,39.2,100,30.17,9.0,Calm,Calm,-,N/A,,Overcast,0,2013-09-19 06:34:00
2:41 AM,39.2,39.2,100,30.17,1.8,Calm,Calm,-,N/A,,Overcast,0,2013-09-19 06:41:00
2:46 AM,39.2,39.2,100,30.18,0.8,Calm,Calm,-,N/A,,Mist,0,2013-09-19 06:46:00
2:54 AM,41.0,39.9,96,30.18,0.5,Calm,Calm,-,N/A,Fog,Fog,0,2013-09-19 06:54:00
3:54 AM,41.0,39.9,96,30.18,0.2,Calm,Calm,-,N/A,Fog,Fog,0,2013-09-19 07:54:00
4:54 AM,42.1,41.0,96,30.18,0.2,Calm,Calm,-,N/A,Fog,Fog,0,2013-09-19 08:54:00
5:54 AM,42.1,41.0,96,30.18,0.2,Calm,Calm,-,N/A,Fog,Fog,0,2013-09-19 09:54:00
6:54 AM,42.1,39.9,92,30.19,0.2,Calm,Calm,-,N/A,Fog,Fog,0,2013-09-19 10:54:00
7:54 AM,43.0,42.1,97,30.20,0.2,Calm,Calm,-,N/A,Fog,Fog,0,2013-09-19 11:54:00
8:54 AM,45.0,44.1,97,30.19,0.2,Calm,Calm,-,N/A,Fog,Fog,0,2013-09-19 12:54:00
9:54 AM,48.0,48.0,100,30.19,0.8,Calm,Calm,-,N/A,,Mist,0,2013-09-19 13:54:00
9:59 AM,48.2,46.4,93,30.17,1.2,Calm,Calm,-,N/A,,Overcast,0,2013-09-19 13:59:00
10:09 AM,51.8,50.0,94,30.17,3.0,Calm,Calm,-,N/A,,Overcast,0,2013-09-19 14:09:00
10:28 AM,53.6,50.0,88,30.16,10.0,SSW,3.5,-,N/A,,Scattered Clouds,200,2013-09-19 14:28:00
10:54 AM,59.0,51.1,75,30.17,10.0,Calm,Calm,-,N/A,,Clear,0,2013-09-19 14:54:00
11:54 AM,66.0,48.0,52,30.15,10.0,Calm,Calm,-,N/A,,Clear,0,2013-09-19 15:54:00
12:54 PM,70.0,46.9,44,30.13,10.0,Calm,Calm,-,N/A,,Clear,0,2013-09-19 16:54:00
1:54 PM,73.0,48.0,41,30.10,10.0,Variable,3.5,-,N/A,,Clear,0,2013-09-19 17:54:00
2:54 PM,75.9,48.0,37,30.08,10.0,Calm,Calm,-,N/A,,Clear,0,2013-09-19 18:54:00
3:54 PM,75.0,48.0,38,30.07,10.0,North,4.6,-,N/A,,Clear,360,2013-09-19 19:54:00
4:54 PM,75.0,48.0,38,30.06,10.0,North,3.5,-,N/A,,Clear,350,2013-09-19 20:54:00
5:54 PM,68.0,53.1,59,30.06,10.0,Calm,Calm,-,N/A,,Clear,0,2013-09-19 21:54:00
6:54 PM,61.0,53.1,75,30.08,10.0,Calm,Calm,-,N/A,,Clear,0,2013-09-19 22:54:00
7:54 PM,55.9,52.0,87,30.10,10.0,Calm,Calm,-,N/A,,Clear,0,2013-09-19 23:54:00
8:54 PM,54.0,51.1,90,30.11,10.0,Calm,Calm,-,N/A,,Clear,0,2013-09-20 00:54:00
9:54 PM,51.1,48.9,92,30.11,10.0,Calm,Calm,-,N/A,,Clear,0,2013-09-20 01:54:00
10:54 PM,51.1,48.0,89,30.12,10.0,Calm,Calm,-,N/A,,Clear,0,2013-09-20 02:54:00
11:54 PM,48.9,46.9,93,30.10,10.0,Calm,Calm,-,N/A,,Clear,0,2013-09-20 03:54:00